Location: Newark
(31.9000°N, 35.2000°E)
Time: 08:24:18
(UTC+00:00)

Envisat - Visible Passes

Search period start: 15 October 2019 00:00
Search period end: 25 October 2019 00:00
Orbit: 764 x 766 km, 98.1° (Epoch: 15 October)

Date Brightness Start Highest point End Pass type
(mag) Time Alt. Az. Time Alt. Az. Time Alt. Az.
15 Oct 3.1 15:33:11 10° SSE 15:38:08 56° ENE 15:43:06 10° N visible
15 Oct 6.1 17:15:19 10° WSW 17:17:25 12° W 17:19:32 10° WNW visible
16 Oct 4.9 16:35:57 10° SSW 16:40:25 31° W 16:44:54 10° NW visible
17 Oct 6.8 03:13:17 10° ENE 03:14:53 11° E 03:16:27 10° ESE visible
17 Oct 3.2 15:58:31 10° S 16:03:35 78° WSW 16:08:40 10° NNW visible
18 Oct 3.3 15:22:10 10° SE 15:26:55 43° ENE 15:31:42 10° N visible
18 Oct 5.8 17:02:54 10° SW 17:06:04 17° W 17:09:15 10° NW visible
19 Oct 4.4 16:24:22 10° SSW 16:29:06 40° W 16:33:53 10° NNW visible
20 Oct 2.9 15:47:16 10° SSE 15:52:20 81° ENE 15:57:26 10° N visible
21 Oct 5.5 16:50:53 10° SW 16:54:44 22° W 16:58:36 10° NW visible
22 Oct 3.8 16:12:53 10° S 16:17:50 53° W 16:22:48 10° NNW visible
23 Oct 3.0 15:36:07 10° SSE 15:41:06 62° ENE 15:46:07 10° N visible
23 Oct 6.2 17:19:02 10° WSW 17:20:26 11° W 17:21:51 10° WNW visible
24 Oct 5.0 16:39:05 10° SSW 16:43:24 28° W 16:47:45 10° NW visible
